EW4221 Weather Reports


Display with metric or nautical units.
time (UTC)temp
F
wind
direction
speed
MPH
gust
MPH
rain 1hr
in
rain 24hr
in
rain mn
in
humidity
%
barometer
mb
20260506084503 51 273 2.0 4.0 0.00 0.04 0.00 92 1004.5
20260506083001 50 191 0.0 10.0 0.00 0.04 0.00 93 1004.7
20260506081602 50 171 0.0 6.0 0.00 0.04 0.00 93 1004.7
20260506073056 49 153 0.0 2.0 0.00 0.04 0.00 92 1004.9
20260506071559 49 34 2.0 4.0 0.00 0.04 0.00 92 1004.8
20260506061549 48 26 1.0 7.0 0.00 0.04 0.00 91 1005.6
20260506044622 50 355 3.0 5.0 0.00 0.04 0.00 88 1006.5
20260506043035 50 25 3.0 6.0 0.00 0.04 0.00 88 1006.7
20260506041531 50 38 2.0 4.0 0.00 0.04 0.00 86 1006.6
20260506040030 51 40 2.0 6.0 0.00 0.04 0.00 86 1006.6
20260506034551 51 56 3.0 9.0 0.00 0.04 0.04 85 1006.6
20260506033024 52 32 4.0 7.0 0.00 0.04 0.04 85 1006.6
20260506031523 52 60 4.0 7.0 0.00 0.04 0.04 85 1006.5
20260506030020 53 38 3.0 7.0 0.00 0.04 0.04 84 1006.7
20260506024519 53 34 5.0 14.0 0.00 0.04 0.04 84 1007.0
20260506023014 55 76 6.0 12.0 0.00 0.04 0.04 87 1006.7
20260506021511 56 22 10.0 15.0 0.00 0.04 0.04 85 1007.2
20260506020006 58 26 3.0 10.0 0.00 0.04 0.04 86 1006.8
20260506014502 59 316 4.0 9.0 0.00 0.04 0.04 85 1006.6
20260506013059 60 350 2.0 6.0 0.00 0.04 0.04 85 1006.1
20260506011617 62 355 4.0 12.0 0.00 0.04 0.04 80 1005.5
20260506004619 63 355 3.0 6.0 0.00 0.04 0.04 74 1005.4
20260506003107 63 305 1.0 5.0 0.00 0.04 0.04 72 1005.3
20260506001555 63 350 2.0 5.0 0.00 0.04 0.04 73 1005.1
20260506000050 63 294 1.0 3.0 0.00 0.04 0.04 74 1005.1
20260505234614 64 249 1.0 4.0 0.00 0.04 0.04 73 1005.1
20260505233050 64 237 1.0 5.0 0.00 0.04 0.04 72 1005.0
20260505231549 64 238 1.0 4.0 0.00 0.04 0.04 73 1005.0
20260505230048 65 227 2.0 7.0 0.00 0.04 0.04 72 1005.0
20260505224549 65 274 3.0 8.0 0.00 0.04 0.04 72 1005.0
20260505223047 65 279 3.0 8.0 0.00 0.04 0.04 73 1004.8
20260505221547 65 228 2.0 8.0 0.00 0.04 0.04 76 1004.6
20260505220059 64 223 3.0 11.0 0.01 0.04 0.04 76 1004.3
20260505214546 64 234 5.0 16.0 0.01 0.04 0.04 73 1004.2
20260505213045 66 249 6.0 13.0 0.01 0.04 0.04 74 1004.4
20260505211550 67 179 4.0 11.0 0.01 0.04 0.04 71 1003.8
20260505210045 67 234 5.0 8.0 0.00 0.03 0.03 70 1004.1
20260505204546 67 278 5.0 11.0 0.00 0.03 0.03 71 1003.8
20260505203042 65 260 6.0 15.0 0.00 0.03 0.03 74 1003.9
20260505201542 63 269 3.0 11.0 0.00 0.03 0.03 81 1004.3
20260505200040 61 271 2.0 5.0 0.03 0.03 0.03 86 1004.0
20260505194544 60 206 0.0 4.0 0.03 0.03 0.03 86 1004.3
20260505193044 60 279 2.0 11.0 0.03 0.03 0.03 84 1004.5
20260505191550 61 271 5.0 23.0 0.03 0.03 0.03 81 1004.4
20260505190033 70 282 15.0 34.0 0.00 0.00 0.00 58 1004.7
20260505184533 73 210 12.0 23.0 0.00 0.00 0.00 41 1002.8
20260505183032 74 196 11.0 25.0 0.00 0.00 0.00 41 1002.6
20260505181529 74 249 11.0 26.0 0.00 0.00 0.00 41 1002.9
20260505180041 74 199 13.0 30.0 0.00 0.00 0.00 41 1003.3
20260505174532 74 209 12.0 31.0 0.00 0.00 0.00 43 1003.7
20260505173021 73 227 9.0 23.0 0.00 0.00 0.00 44 1003.8
20260505171524 73 225 10.0 18.0 0.00 0.00 0.00 45 1004.1
20260505170027 72 211 10.0 26.0 0.00 0.00 0.00 46 1004.0
20260505164520 72 215 13.0 22.0 0.00 0.00 0.00 47 1003.9
20260505163021 72 248 9.0 19.0 0.00 0.00 0.00 47 1003.8
20260505161517 73 190 12.0 25.0 0.00 0.00 0.00 47 1003.9
20260505153012 72 195 10.0 21.0 0.00 0.00 0.00 49 1004.5
20260505151511 72 243 14.0 24.0 0.00 0.00 0.00 47 1004.4
20260505124543 65 241 9.0 20.0 0.00 0.00 0.00 60 1005.1
20260505123057 63 196 8.0 17.0 0.00 0.00 0.00 62 1005.2
20260505121535 62 211 8.0 16.0 0.00 0.00 0.00 64 1005.1
20260505120033 61 226 7.0 19.0 0.00 0.00 0.00 64 1005.2
20260505114533 61 210 6.0 17.0 0.00 0.00 0.00 65 1005.0
20260505113036 61 207 7.0 20.0 0.00 0.00 0.00 67 1004.9
20260505111548 60 219 6.0 15.0 0.00 0.00 0.00 67 1004.7
20260505101517 60 167 5.0 10.0 0.00 0.00 0.00 65 1004.8
20260505100015 61 236 6.0 11.0 0.00 0.00 0.00 63 1004.9
20260505094516 61 227 5.0 14.0 0.00 0.00 0.00 63 1004.9
20260505093013 61 211 8.0 18.0 0.00 0.00 0.00 63 1004.6
20260505091512 60 221 4.0 12.0 0.00 0.00 0.00 63 1004.5
20260505090010 61 194 5.0 15.0 0.00 0.00 0.00 62 1004.3